Weather History for Rice Lake, WI

Change the Weather History Date:

Wednesday, October 31, 2012

  Actual Average Record
Temperature  
Mean Temperature 34 °F -  
Max Temperature 46 °F 46 °F 66 °F (1999)
Min Temperature 23 °F 32 °F 14 °F (1996)
Degree Days  
Heating Degree Days 30    
Moisture  
Dew Point 17 °F    
Average Humidity 58    
Maximum Humidity 93    
Minimum Humidity 18    
Precipitation  
Precipitation 0.00 in - - ()
Sea Level Pressure  
Sea Level Pressure 29.97 in    
Wind  
Wind Speed 4 mph (NW)    
Max Wind Speed 9 mph    
Max Gust Speed -    
Visibility 10 miles    
Events      
Averages and records for this station are not official NWS values.
T = Trace of Precipitation, MM = Missing Value Source: NWS Daily Summary

Daily Weather History Graph

Daily Weather History Graph

Search for Another Location

Airport:

Trip Planner

Search our weather history database for the weather conditions in past years. The results will help you decide how hot, cold, wet, or windy it might be!

Date:

Astronomy

Oct. 31, 2012 Rise Set
Actual Time 7:45 AM CDT 5:54 PM CDT
Civil Twilight 7:14 AM CDT 6:25 PM CDT
Nautical Twilight 6:39 AM CDT 7:00 PM CDT
Astronomical Twilight 6:05 AM CDT 7:35 PM CDT
Moon 7:00 PM CDT (10/31) 9:32 AM CDT (10/31)
Length of Visible Light 11h 10m
Length of Day
10h 09m
Full, 97% of the Moon is Illuminated
Oct 31
Full
Nov 6
Last Quarter
Nov 13
New
Nov 20
First Quarter
Nov 28
Full

Hourly Weather History & Observations

Time (CDT) Temp. Windchill Dew Point Humidity Pressure Visibility Wind Dir Wind Speed Gust Speed Precip Events Conditions
12:15 AM 28.4 °F 24.6 °F 21.2 °F 74% 30.03 in 10.0 mi WNW 3.5 mph - N/A   Clear
12:35 AM 28.4 °F 24.6 °F 21.2 °F 74% 30.03 in 10.0 mi WNW 3.5 mph - N/A   Clear
12:55 AM 28.4 °F 24.6 °F 21.2 °F 74% 30.03 in 10.0 mi NW 3.5 mph - N/A   Clear
1:15 AM 28.4 °F 23.3 °F 21.2 °F 74% 30.03 in 10.0 mi NW 4.6 mph - N/A   Clear
1:35 AM 28.4 °F 23.3 °F 21.2 °F 74% 30.03 in 10.0 mi NW 4.6 mph - N/A   Clear
1:55 AM 28.4 °F 22.2 °F 21.2 °F 74% 30.03 in 10.0 mi NW 5.8 mph - N/A   Clear
2:15 AM 28.4 °F 23.3 °F 21.2 °F 74% 30.03 in 10.0 mi NW 4.6 mph - N/A   Clear
2:35 AM 28.4 °F 23.3 °F 21.2 °F 74% 30.03 in 10.0 mi NW 4.6 mph - N/A   Clear
2:55 AM 28.4 °F 22.2 °F 21.2 °F 74% 30.03 in 10.0 mi NW 5.8 mph - N/A   Clear
3:15 AM 28.4 °F 22.2 °F 21.2 °F 74% 30.03 in 10.0 mi NW 5.8 mph - N/A   Clear
3:35 AM 28.4 °F 24.6 °F 21.2 °F 74% 30.02 in 10.0 mi NW 3.5 mph - N/A   Clear
3:55 AM 28.4 °F 23.3 °F 21.2 °F 74% 30.02 in 10.0 mi NW 4.6 mph - N/A   Clear
4:15 AM 26.6 °F 21.2 °F 21.2 °F 80% 30.03 in 10.0 mi NW 4.6 mph - N/A   Clear
4:35 AM 26.6 °F 21.2 °F 21.2 °F 80% 30.02 in 10.0 mi WNW 4.6 mph - N/A   Clear
4:55 AM 26.6 °F 21.2 °F 21.2 °F 80% 30.02 in 10.0 mi NW 4.6 mph - N/A   Clear
5:15 AM 24.8 °F 17.9 °F 21.2 °F 86% 30.01 in 10.0 mi WNW 5.8 mph - N/A   Clear
5:35 AM 24.8 °F 20.5 °F 21.2 °F 86% 30.01 in 10.0 mi NW 3.5 mph - N/A   Clear
5:55 AM 24.8 °F 19.1 °F 21.2 °F 86% 30.01 in 10.0 mi NNW 4.6 mph - N/A   Clear
6:15 AM 24.8 °F 20.5 °F 21.2 °F 86% 30.01 in 10.0 mi NW 3.5 mph - N/A   Clear
6:35 AM 24.8 °F 20.5 °F 21.2 °F 86% 30.00 in 10.0 mi NW 3.5 mph - N/A   Clear
6:55 AM 23.0 °F 17.0 °F 21.2 °F 93% 30.00 in 10.0 mi WNW 4.6 mph - N/A   Clear
7:15 AM 23.0 °F - 21.2 °F 93% 30.00 in 10.0 mi Calm Calm - N/A   Clear
7:35 AM 23.0 °F - 21.2 °F 93% 30.00 in 10.0 mi Calm Calm - N/A   Clear
7:55 AM 23.0 °F - 21.2 °F 93% 30.01 in 10.0 mi Calm Calm - N/A   Clear
8:15 AM 23.0 °F - 21.2 °F 93% 30.01 in 10.0 mi Calm Calm - N/A   Clear
8:35 AM 23.0 °F - 21.2 °F 93% 30.01 in 10.0 mi Calm Calm - N/A   Clear
8:55 AM 26.6 °F 20.0 °F 23.0 °F 86% 30.01 in 10.0 mi West 5.8 mph - N/A   Clear
9:15 AM 28.4 °F 23.3 °F 23.0 °F 80% 30.01 in 10.0 mi West 4.6 mph - N/A   Clear
9:35 AM 30.2 °F 25.4 °F 23.0 °F 75% 30.00 in 10.0 mi WNW 4.6 mph - N/A   Clear
9:55 AM 30.2 °F 24.3 °F 23.0 °F 75% 30.00 in 10.0 mi West 5.8 mph - N/A   Clear
10:15 AM 32.0 °F 27.5 °F 24.8 °F 75% 30.00 in 10.0 mi NW 4.6 mph - N/A   Clear
10:35 AM 33.8 °F 27.0 °F 23.0 °F 65% 30.00 in 10.0 mi NW 8.1 mph - N/A   Clear
10:55 AM 33.8 °F 27.0 °F 21.2 °F 60% 29.99 in 10.0 mi NW 8.1 mph - N/A   Clear
11:15 AM 35.6 °F 30.7 °F 21.2 °F 56% 29.99 in 10.0 mi WNW 5.8 mph - N/A   Clear
11:35 AM 37.4 °F 31.4 °F 15.8 °F 41% 29.99 in 10.0 mi NNW 8.1 mph - N/A   Clear
11:55 AM 39.2 °F 34.2 °F 12.2 °F 33% 29.98 in 10.0 mi North 6.9 mph - N/A   Clear
12:15 PM 41.0 °F 36.4 °F 12.2 °F 31% 29.98 in 10.0 mi NW 6.9 mph - N/A   Clear
12:35 PM 42.8 °F 38.0 °F 10.4 °F 27% 29.98 in 10.0 mi NNW 8.1 mph - N/A   Clear
12:55 PM 42.8 °F 38.6 °F 6.8 °F 23% 29.97 in 10.0 mi North 6.9 mph - N/A   Clear
1:15 PM 44.6 °F 40.7 °F 5.0 °F 20% 29.95 in 10.0 mi NNW 6.9 mph - N/A   Clear
1:35 PM 44.6 °F 39.7 °F 3.2 °F 18% 29.95 in 10.0 mi NNW 9.2 mph - N/A   Clear
1:55 PM 44.6 °F 40.2 °F 5.0 °F 20% 29.95 in 10.0 mi WNW 8.1 mph - N/A   Clear
2:15 PM 46.4 °F 42.4 °F 8.6 °F 22% 29.94 in 10.0 mi NW 8.1 mph - N/A   Clear
2:55 PM 46.4 °F 43.5 °F 8.6 °F 22% 29.93 in 10.0 mi NNW 5.8 mph - N/A   Clear
3:15 PM 46.4 °F 43.5 °F 8.6 °F 22% 29.92 in 10.0 mi NW 5.8 mph - N/A   Clear
3:35 PM 46.4 °F 42.4 °F 5.0 °F 18% 29.92 in 10.0 mi NNW 8.1 mph - N/A   Clear
3:55 PM 46.4 °F 42.4 °F 8.6 °F 22% 29.93 in 10.0 mi WNW 8.1 mph - N/A   Clear
4:15 PM 46.4 °F 42.4 °F 8.6 °F 22% 29.93 in 10.0 mi NW 8.1 mph - N/A   Clear
4:35 PM 46.4 °F 43.5 °F 10.4 °F 23% 29.93 in 10.0 mi NW 5.8 mph - N/A   Clear
4:55 PM 44.6 °F 40.7 °F 10.4 °F 25% 29.93 in 10.0 mi WNW 6.9 mph - N/A   Clear
5:15 PM 44.6 °F 42.2 °F 8.6 °F 23% 29.93 in 10.0 mi NW 4.6 mph - N/A   Clear
5:35 PM 44.6 °F 42.2 °F 10.4 °F 25% 29.93 in 10.0 mi WNW 4.6 mph - N/A   Clear
5:55 PM 42.8 °F 41.1 °F 12.2 °F 29% 29.93 in 10.0 mi West 3.5 mph - N/A   Clear
6:15 PM 41.0 °F - 12.2 °F 31% 29.93 in 10.0 mi Calm Calm - N/A   Clear
6:35 PM 39.2 °F - 10.4 °F 31% 29.93 in 10.0 mi Calm Calm - N/A   Clear
6:55 PM 33.8 °F - 21.2 °F 60% 29.93 in 10.0 mi Calm Calm - N/A   Clear
7:35 PM 32.0 °F - 23.0 °F 69% 29.93 in 10.0 mi Calm Calm - N/A   Scattered Clouds
7:55 PM 32.0 °F - 19.4 °F 60% 29.93 in 10.0 mi Calm Calm - N/A   Clear
8:15 PM 32.0 °F - 17.6 °F 55% 29.93 in 10.0 mi Calm Calm - N/A   Clear
8:35 PM 32.0 °F - 21.2 °F 64% 29.93 in 10.0 mi Calm Calm - N/A   Clear
8:55 PM 30.2 °F - 24.8 °F 80% 29.93 in 10.0 mi Calm Calm - N/A   Mostly Cloudy
9:15 PM 32.0 °F - 21.2 °F 64% 29.93 in 10.0 mi Calm Calm - N/A   Overcast
9:35 PM 33.8 °F - 21.2 °F 60% 29.93 in 10.0 mi Calm Calm - N/A   Overcast
9:55 PM 35.6 °F - 17.6 °F 48% 29.93 in 10.0 mi Calm Calm - N/A   Overcast
10:15 PM 35.6 °F - 21.2 °F 56% 29.92 in 10.0 mi Calm Calm - N/A   Overcast
10:35 PM 37.4 °F - 15.8 °F 41% 29.92 in 10.0 mi Calm Calm - N/A   Overcast
10:55 PM 37.4 °F - 17.6 °F 45% 29.92 in 10.0 mi Calm Calm - N/A   Overcast
11:15 PM 37.4 °F - 17.6 °F 45% 29.92 in 10.0 mi Calm Calm - N/A   Overcast
11:35 PM 37.4 °F - 17.6 °F 45% 29.91 in 10.0 mi Calm Calm - N/A   Overcast
11:55 PM 37.4 °F - 19.4 °F 48% 29.91 in 10.0 mi Calm Calm - N/A   Overcast